Flag for Germany Weather past 2 weeks in Krefeld, North Rhine-Westphalia, Germany

Now
55 °F

Rain. Overcast.


Feels Like: 53 °F
Forecast: 51 / 60 °F
Wind: 7 mph from Southwest

Location: Duesseldorf

Current Time: Sep 5, 2015 at 1:34:08 AM

Latest Report: Sep 5, 2015 at 1:00 AM


Visibility: 9 mi

Pressure: 29.94 "Hg

Humidity: 90%

Dew point: 52 °F

Location of KrefeldLocation

Historic Weather in Krefeld — Graph

°F

Krefeld temperature yesterday

Maximum temperature yesterday: 60 °F (at 3:00 PM)
Minimum temperature yesterday: 51 °F (at 7:00 AM)
Average temperature yesterday: 56 °F

Past Weeks' High & Low Weather Summary

 TemperatureHumidityPressure
High89 °F (Aug 30, 4:00 PM)99% (Sep 3, 7:00 AM)30.26 "Hg (Sep 3, 7:00 AM)
Low51 °F (Sep 2, 6:00 AM)33% (Aug 23, 2:00 PM)29.53 "Hg (Aug 24, 6:00 PM)
Average66 °F72%29.95 "Hg
* Reported Aug 21 1:00 AM — Sep 4 11:00 PM, Krefeld, Weather by CustomWeather, © 2015

Note: Actual official high and low records may vary slightly from our data, if they occured in-between our weather recording intervals... More about our weather records

Advertising

Krefeld weather history for previous 24 hours

 ConditionsComfort  
Time TempWeatherWind HumidityBarometerVisibility
11:00 PM
Fri, Sep 4
54 °FRain. Overcast.8 mph90%29.95 "Hg5 mi
10:00 PM55 °FLight rain. Overcast.5 mph88%29.95 "Hg14 mi
9:00 PM58 °FOvercast.7 mph73%29.95 "Hg22 mi
8:00 PM58 °FOvercast.6 mph67%29.93 "Hg19 mi
7:00 PM60 °FOvercast.6 mph60%29.93 "Hg47 mi
6:00 PM60 °FOvercast.7 mph65%29.93 "Hg16 mi
5:00 PM60 °FOvercast.5 mph69%29.94 "Hg12 mi
4:00 PM60 °FOvercast.8 mph65%29.96 "Hg16 mi
3:00 PM60 °FOvercast.7 mph64%29.97 "Hg16 mi
2:00 PM60 °FOvercast.7 mph65%29.97 "Hg12 mi
1:00 PM58 °FOvercast.7 mph67%29.97 "Hg16 mi
12:00 PM59 °FPartly sunny.8 mph66%29.98 "Hg19 mi
11:00 AM58 °FScattered clouds.6 mph72%29.97 "Hg22 mi
10:00 AM55 °FPartly sunny.5 mph79%29.97 "Hg22 mi
9:00 AM54 °FScattered clouds.5 mph84%29.97 "Hg16 mi
8:00 AM52 °FScattered clouds.6 mph90%29.96 "Hg16 mi
7:00 AM51 °FPassing clouds.5 mph91%29.96 "Hg16 mi
5:00 AM53 °FOvercast.3 mph92%29.96 "Hg12 mi
4:00 AM54 °FOvercast.5 mph86%29.96 "Hg19 mi
3:00 AM55 °FOvercast.5 mph88%29.97 "Hg19 mi
2:00 AM55 °FOvercast.3 mph87%29.97 "Hg19 mi
1:00 AM54 °FOvercast.2 mph90%29.98 "Hg19 mi
Weather by CustomWeather, © 2015

See weather overviewHow to use our weather pages